TimeCDT,TemperatureF,Dew PointF,Humidity,Sea Level PressureIn,VisibilityMPH,Wind Direction,Wind SpeedMPH,Gust SpeedMPH,PrecipitationIn,Events,Conditions,WindDirDegrees,DateUTC
12:15 AM,50.9,50.9,100,30.03,10.0,ENE,4.6,-,N/A,,Clear,70,2013-09-24 05:15:00
12:35 AM,50.2,50.2,100,30.03,10.0,NE,3.5,-,N/A,,Clear,50,2013-09-24 05:35:00
12:55 AM,50.4,50.4,100,30.03,10.0,ENE,4.6,-,N/A,,Clear,70,2013-09-24 05:55:00
1:15 AM,50.4,50.4,100,30.03,10.0,East,5.8,-,N/A,,Clear,80,2013-09-24 06:15:00
1:35 AM,50.5,50.5,100,30.03,10.0,East,6.9,-,N/A,,Clear,90,2013-09-24 06:35:00
1:55 AM,50.4,50.4,100,30.03,10.0,ENE,4.6,-,N/A,,Clear,70,2013-09-24 06:55:00
2:15 AM,49.8,49.8,100,30.03,10.0,East,5.8,-,N/A,,Clear,90,2013-09-24 07:15:00
2:35 AM,50.4,50.4,100,30.03,10.0,ESE,8.1,-,N/A,,Clear,110,2013-09-24 07:35:00
2:55 AM,50.4,50.4,100,30.02,10.0,ESE,6.9,-,N/A,,Clear,110,2013-09-24 07:55:00
3:15 AM,50.0,50.0,100,30.03,7.0,ESE,5.8,-,N/A,,Clear,110,2013-09-24 08:15:00
3:35 AM,50.0,50.0,100,30.03,7.0,ESE,5.8,-,N/A,,Clear,110,2013-09-24 08:35:00
3:55 AM,50.2,50.2,100,30.04,10.0,SE,6.9,-,N/A,,Clear,130,2013-09-24 08:55:00
4:15 AM,50.4,50.4,100,30.03,10.0,ESE,8.1,-,N/A,,Clear,120,2013-09-24 09:15:00
4:35 AM,50.4,50.4,100,30.03,10.0,SE,8.1,-,N/A,,Clear,130,2013-09-24 09:35:00
4:55 AM,50.4,50.4,100,30.03,10.0,ESE,4.6,-,N/A,,Clear,120,2013-09-24 09:55:00
5:15 AM,49.6,49.6,100,30.03,10.0,ESE,5.8,-,N/A,,Clear,120,2013-09-24 10:15:00
5:35 AM,49.1,49.1,100,30.03,10.0,ESE,5.8,-,N/A,,Clear,110,2013-09-24 10:35:00
5:55 AM,48.2,48.2,100,30.03,10.0,East,5.8,-,N/A,,Clear,100,2013-09-24 10:55:00
6:15 AM,47.7,47.7,100,30.03,7.0,East,4.6,-,N/A,,Clear,100,2013-09-24 11:15:00
6:35 AM,47.5,47.5,100,30.03,10.0,ESE,3.5,-,N/A,,Clear,110,2013-09-24 11:35:00
6:55 AM,47.1,47.1,100,30.03,7.0,Calm,Calm,-,N/A,,Clear,0,2013-09-24 11:55:00
7:15 AM,47.5,47.5,100,30.03,7.0,East,3.5,-,N/A,,Clear,80,2013-09-24 12:15:00
7:35 AM,48.0,48.0,100,30.03,5.0,East,3.5,-,N/A,,Clear,80,2013-09-24 12:35:00
7:55 AM,49.6,49.6,100,30.03,10.0,East,3.5,-,N/A,,Clear,100,2013-09-24 12:55:00
8:15 AM,51.1,51.1,100,30.04,10.0,East,3.5,-,N/A,,Clear,90,2013-09-24 13:15:00
8:35 AM,52.7,52.7,100,30.03,10.0,East,6.9,-,N/A,,Clear,90,2013-09-24 13:35:00
8:55 AM,54.1,54.1,100,30.03,10.0,East,5.8,-,N/A,,Clear,100,2013-09-24 13:55:00
9:15 AM,56.1,54.9,96,30.03,10.0,East,5.8,-,N/A,,Clear,100,2013-09-24 14:15:00
9:35 AM,57.7,52.5,83,30.03,10.0,East,6.9,-,N/A,,Clear,90,2013-09-24 14:35:00
9:55 AM,59.9,50.4,71,30.03,10.0,ESE,6.9,-,N/A,,Clear,110,2013-09-24 14:55:00
10:15 AM,61.0,50.4,68,30.03,10.0,ESE,3.5,-,N/A,,Clear,110,2013-09-24 15:15:00
10:35 AM,62.8,50.7,65,30.03,10.0,ESE,4.6,-,N/A,,Clear,110,2013-09-24 15:35:00
10:55 AM,64.0,50.9,62,30.02,10.0,ENE,5.8,-,N/A,,Clear,70,2013-09-24 15:55:00
11:15 AM,65.7,50.4,58,30.01,10.0,East,5.8,-,N/A,,Clear,100,2013-09-24 16:15:00
11:35 AM,67.1,50.4,55,30.01,10.0,East,8.1,-,N/A,,Clear,100,2013-09-24 16:35:00
11:55 AM,67.6,48.9,51,30.00,10.0,ESE,9.2,16.1,N/A,,Clear,120,2013-09-24 16:55:00
12:15 PM,68.4,47.7,48,30.00,10.0,ESE,9.2,17.3,N/A,,Clear,110,2013-09-24 17:15:00
12:55 PM,70.2,48.2,46,29.99,10.0,ESE,6.9,17.3,N/A,,Clear,110,2013-09-24 17:55:00
1:15 PM,70.9,48.4,45,29.99,10.0,SE,9.2,-,N/A,,Clear,130,2013-09-24 18:15:00
1:35 PM,70.5,46.8,43,29.98,10.0,SE,8.1,-,N/A,,Clear,130,2013-09-24 18:35:00
1:55 PM,71.4,47.3,42,29.98,10.0,ESE,9.2,-,N/A,,Clear,110,2013-09-24 18:55:00
2:15 PM,71.1,47.1,42,29.97,10.0,East,6.9,-,N/A,,Clear,90,2013-09-24 19:15:00
2:35 PM,71.8,47.3,42,29.97,10.0,ESE,6.9,-,N/A,,Clear,110,2013-09-24 19:35:00
2:55 PM,72.1,47.1,41,29.96,10.0,ESE,4.6,9.2,N/A,,Clear,120,2013-09-24 19:55:00
3:15 PM,72.7,46.4,39,29.95,10.0,ESE,8.1,-,N/A,,Clear,120,2013-09-24 20:15:00
3:35 PM,72.5,46.2,39,29.95,10.0,East,9.2,-,N/A,,Clear,90,2013-09-24 20:35:00
3:55 PM,72.7,45.9,38,29.95,10.0,East,10.4,-,N/A,,Clear,90,2013-09-24 20:55:00
4:15 PM,72.5,47.1,40,29.94,10.0,ENE,8.1,-,N/A,,Clear,70,2013-09-24 21:15:00
4:35 PM,72.5,46.2,39,29.94,10.0,ENE,6.9,-,N/A,,Clear,70,2013-09-24 21:35:00
4:55 PM,72.0,45.1,38,29.94,10.0,East,6.9,-,N/A,,Clear,90,2013-09-24 21:55:00
5:15 PM,71.4,45.0,39,29.94,10.0,East,9.2,-,N/A,,Clear,90,2013-09-24 22:15:00
5:35 PM,70.9,45.5,40,29.94,10.0,ESE,8.1,-,N/A,,Clear,110,2013-09-24 22:35:00
5:55 PM,70.0,45.9,42,29.94,10.0,East,6.9,-,N/A,,Clear,90,2013-09-24 22:55:00
6:15 PM,68.9,47.1,46,29.94,10.0,East,4.6,-,N/A,,Clear,100,2013-09-24 23:15:00
6:35 PM,66.9,48.2,51,29.94,10.0,East,5.8,-,N/A,,Clear,80,2013-09-24 23:35:00
6:55 PM,65.3,48.4,54,29.95,10.0,East,6.9,-,N/A,,Clear,100,2013-09-24 23:55:00
7:15 PM,63.9,48.2,57,29.95,10.0,East,9.2,-,N/A,,Clear,100,2013-09-25 00:15:00
7:35 PM,62.4,48.4,60,29.95,10.0,East,5.8,-,N/A,,Clear,80,2013-09-25 00:35:00
7:55 PM,61.0,48.6,64,29.96,10.0,ENE,6.9,-,N/A,,Clear,70,2013-09-25 00:55:00
8:15 PM,59.9,48.6,66,29.96,10.0,East,8.1,-,N/A,,Clear,80,2013-09-25 01:15:00
8:35 PM,58.8,48.6,69,29.97,10.0,ENE,4.6,-,N/A,,Clear,70,2013-09-25 01:35:00
8:55 PM,58.1,48.9,71,29.97,10.0,ENE,5.8,-,N/A,,Clear,70,2013-09-25 01:55:00
9:15 PM,57.4,50.4,77,29.97,10.0,ENE,6.9,-,N/A,,Clear,70,2013-09-25 02:15:00
9:35 PM,56.5,54.0,91,29.96,10.0,ENE,6.9,-,N/A,,Clear,60,2013-09-25 02:35:00
9:55 PM,56.1,54.7,95,29.97,10.0,ENE,8.1,-,N/A,,Clear,60,2013-09-25 02:55:00
10:15 PM,55.2,55.2,100,29.97,10.0,ENE,8.1,-,N/A,,Clear,70,2013-09-25 03:15:00
10:35 PM,54.3,54.3,100,29.97,10.0,ENE,6.9,-,N/A,,Clear,60,2013-09-25 03:35:00
10:55 PM,54.1,54.1,100,29.97,10.0,ENE,6.9,-,N/A,,Clear,60,2013-09-25 03:55:00
11:15 PM,53.4,53.4,100,29.97,10.0,ENE,6.9,-,N/A,,Clear,60,2013-09-25 04:15:00
11:35 PM,52.7,52.7,100,29.97,10.0,NE,8.1,-,N/A,,Clear,50,2013-09-25 04:35:00
11:55 PM,52.7,52.7,100,29.97,10.0,ENE,6.9,-,N/A,,Clear,60,2013-09-25 04:55:00